Powrót do katalogu

NOAA 17 DEB

AktywnyPO
NORAD 48616·DEBRIS·🇺🇸 United States

Wystrzelony Jun 24, 2002 z Vandenberg Space Force Base

Loading…

Następne Przeloty (najbliższe 24 godziny)

TLE

ŚwieżeSource: Space-Track

Epoka: Sep 13, 2026, 04:41 UTC

1 48616U 02032AH  26256.19578689  .00005537  00000-0  11585-2 0  9998
2 48616  98.7167 246.7272 0005961 331.8318  28.2557 14.60206277283549

Śledź NOAA 17 DEB w czasie rzeczywistym z AllMySat

Download on the App Store